Regional Weather Roundup
Issued by NWS Sterling, VA

Current Version | Previous Version | Text Only | Print | Product List | Glossary On
Versions: 1 2 3 4 5 6 7 8 9 10 11 12 13 14 15 16 17 18 19 20 21 22 23 24 25 26 27
000
ASUS41 KLWX 231310
RWRLWX

REGIONAL WEATHER ROUNDUP
NATIONAL WEATHER SERVICE BALTIMORE MD/WASHINGTON DC
800 AM EST THU FEB 23 2017

Note: "FAIR" indicates few or no clouds below 12,000 feet
with no significant weather and/or obstructions to visibility.
 TC=TEMPERATURE CELSIUS

 * =Non NWS site. Station does not report precipitation (e.g. rain,
    snow, etc.), thunder, or fog.

DCZ001-MDZ009-015-VAZ040>042-051-053>054-231400-
WASHINGTON METRO

CITY           SKY/WX    TMP DP  RH WIND       PRES   REMARKS
WASHINGTON NAT MOSUNNY   55  54  96 S6        29.91S
DULLES         MOSUNNY   55  52  89 S3        29.90S
ANDREWS AFB    MOSUNNY   57  54  87 S7        29.90R
FT BELVOIR     MOSUNNY   52  51  94 CALM      29.91R
QUANTICO       PTSUNNY   51  51 100 S8        29.92S
COLLEGE PARK*  SUNNY     52  50  93 CALM      29.90S
LEESBURG*      FOG       48  48 100 MISG      29.91S VSB<1/4
MANASSAS*      PTSUNNY   52  51  97 S3        29.91R
GAITHERSBURG*  SUNNY     52  46  82 CALM      29.94S

$$

MDZ006>007-011-014-231400-
BALTIMORE METRO

CITY           SKY/WX    TMP DP  RH WIND       PRES   REMARKS
BWI AIRPORT    FOG       49  49 100 CALM      29.90S VSB 1/2
MD SCIENCE CTR   N/A     51  48  89 MISG      29.91S
MARTIN STATE   FOG       46  46 100 CALM      29.92S VSB 1/4
ANNAPOLIS      SUNNY     48  48 100 SE5       29.91S FOG
FORT MEADE*    CLOUDY    46  45  93 CALM      29.93S

$$

MDZ012-015-019>023-231400-
MARYLAND EASTERN SHORE

CITY           SKY/WX    TMP DP  RH WIND       PRES   REMARKS
OCEAN CITY     CLOUDY    54  50  86 SW8       29.95R
SALISBURY      CLOUDY    57  54  89 S9        29.93R
BAY BRIDGE AP* CLOUDY    52  50  93 SE5       29.92R FOG
CAMBRIDGE*     CLOUDY    54  52  94 VRB3      29.93R
EASTON*        PTSUNNY   55  52  88 S5        29.96R

$$

MDZ017>025-231400-
SOUTHERN MARYLAND

CITY           SKY/WX    TMP DP  RH WIND       PRES   REMARKS
PATUXENT RIVER PTSUNNY   56  53  90 SW8       29.92R
ST INIGOES     CLOUDY    56  52  86 S9        29.93R
LEONARDTOWN*   CLOUDY    55  52  88 SW6       29.94R

$$

MDZ003>005-231400-
NORTH CENTRAL MARYLAND

CITY           SKY/WX    TMP DP  RH WIND       PRES   REMARKS
FREDERICK*     FOG       52  52 100 S3        29.93R VSB 1/4
HAGERSTOWN APT SUNNY     54  50  86 W5        29.88R
WESTMINSTER*   FOG       52  52 100 S7        29.88F VSB<1/4

$$

MDZ501>502-231400-
WESTERN MARYLAND

CITY           SKY/WX    TMP DP  RH WIND       PRES   REMARKS
OAKLAND*       CLOUDY    50  50 100 SW12G17   29.89R
CUMBERLAND*    CLOUDY    52  46  82 CALM      29.91R

$$

VAZ025>031-231400-
SHENANDOAH VALLEY

CITY           SKY/WX    TMP DP  RH WIND       PRES   REMARKS
WINCHESTER*    SUNNY     54  50  87 SW7       29.88R
FRONT ROYAL*   SUNNY     55  52  88 S7        29.88R
LURAY*         SUNNY     55  54  94 SW6       29.91R
NEW MARKET*    SUNNY     51  48  90 SW5       29.90S
STAUNTON*      MOSUNNY   52  49  92 CALM      29.94R
WAYNESBORO*    CLOUDY    50  49  96 CALM      29.92S

$$

WVZ021-048>050-054>055-231400-
EASTERN WEST VIRGINIA PANHANDLE

CITY           SKY/WX    TMP DP  RH WIND       PRES   REMARKS
MARTINSBURG    SUNNY     51  47  86 W5        29.87R
PETERSBURG*    CLOUDY    53  51  92 CALM      29.90R

$$

VAZ036>039-050-231400-
CENTRAL FOOTHILLS

CITY           SKY/WX    TMP DP  RH WIND       PRES   REMARKS
CHARLOTTESVILL CLOUDY    54  52  93 S8        29.91R
CULPEPER*      CLOUDY    56  54  91 S3        29.91S
ORANGE*        CLOUDY    52  52 100 CALM      29.93R
GORDONSVILLE*  CLOUDY    53  53 100 SW3       29.92R FOG
WARRENTON*     CLOUDY    56  51  82 CALM      29.90R

$$

VAZ055>057-231400-
NORTH AND CENTRAL PIEDMONT

CITY           SKY/WX    TMP DP  RH WIND       PRES   REMARKS
FREDERICKSBRG* CLOUDY    56  56  99 CALM      29.92R
STAFFORD*      CLOUDY    55  55  97 S5        29.96R

$$

NCZ024-NYZ072-PAZ021-071-VAZ022-071-231400-
OTHER REGIONAL OBSERVATIONS

CITY           SKY/WX    TMP DP  RH WIND       PRES   REMARKS
NEW YORK CITY  SUNNY     48  42  80 CALM      29.92R
PHILADELPHIA   FOG       49  48  97 CALM      29.92R VSB 1/2
PITTSBURGH     CLOUDY    55  53  91 S3        29.81S
ROANOKE        FOG       47  47 100 W3        29.97R VSB 1/4
RICHMOND       LGT RAIN  54  54 100 S3        29.95R
RALEIGH        PTSUNNY   53  51  93 CALM      29.96R

$$

ANZ530>537-231400-
MARINE OBSERVATIONS

STATION/POSITION TIME  TEMP    WIND        PRES
                       AIR SEA DIR/SP/G
                 (UTC) (F)     (DEG/KT/KT) (MB)
THOMAS PT LIGHT  1200   45 43  200/  5/  6   N/A
BALT KEY BRIDGE  1248   47     160/  3/  4 1012.6S
COVE POINT       1248   47     190/  7/  8 1013.7R
LEWISETTA        1248   57 44  230/  9/ 10 1013.3R
SOLOMONS ISLAND  1242   54 44  180/  2/  3   N/A
PINEY POINT      1242          220/  3/  5   N/A

$$





USA.gov is the U.S. government's official web portal to all federal, state and local government web resources and services.